COSMOS 1275 DEB, 42104

Orbit data source: Space-Track

COSMOS 1275 DEB, 42104 is space debris in LEO originally from a launch on Thu, 04 Jun 1981 UTC launched from the Plesetsk Missile And Space Complex (PKMTR). Debris objects in space refer to the collection of defunct objects orbiting the Earth. Examples of debris include non-operational satellites, rocket bodies, and fragments generated from explosions, collisions, or faulty payload assembly.

Loading next visibility...
Identifier
42104, 1981-053PQ
Orbit
LEO
Country
Flag of CISCIS
Related business
Manufacturer
Unknown
Mission
Spacecraft
Bus & Motor
Unknown
Mass
Unknown
Launch date (UTC)
1981-06-04 (44 years ago)
Launch vehicle
Unknown
Launch site
Plesetsk Missile And Space Complex (PKMTR)
Object type
Payload
Rocket body
Debris
Shape & HBR
Unknown shape, 0.1 m
Radar Cross Section
Small (<0.1 m²)

Expand to show TLE details & history
Last TLE update: 3 days ago

TLE from 3 days ago
0 COSMOS 1275 DEB
1 42104U 81053PQ  25283.66850738  .00000545  00000-0  49165-3 0  9993
2 42104  82.8762 260.8636 0042690  28.4392 331.9084 13.81754777599614
Epoch: 2025-10-10T16:02Z
TLE epoch observation values (Epoch: 2025-10-10T16:02:39.037Z)
Latitude
-0.00004°
Longitude
0.6899°
Altitude
932.974 km
Speed
7.399 km/s
True Right ascension
17h 23m 27s
True Declination
0° 00' 00"
Sunlit
Object was in daylight at epoch
Visualization orbit readout
Latitude
Unknown
Longitude
Unknown
Altitude
Unknown
Speed
Unknown
Apparent Right ascension
Unknown
Apparent Declination
Unknown
Sunlit
N/A
Visualization observer readout
Local Sidereal Time
21:11:32
Azimuth
Unknown
Elevation
Unknown
Doppler factor
Unknown
Orbital elements
Apogee altitude
986.116 km
Perigee altitude
923.507 km
Semi-major axis
7,332.948 km
Eccentricity
0.00427
Inclination
82.8762°
RAAN
260.8636°
Arg. of periapsis
28.4392°
True anomaly
331.67696°
Mean anomaly
331.9084°
Eccentric anomaly
331.79279°
Mean motion
3.45641 °/min
Orbital period
104.15 mins
BSTAR
0.00049165
Loading maneuver chart data...
Computing Atmospheric mass density...
Loading historical data...
Loading historical data...
Loading historical data...
Loading historical data...
Loading historical data...
Loading historical data...
Loading historical data...

Documentation

Showing up to 5 results
|